Location: Burbank
(38.7788°N, 114.0429°W)
Time: 05:04:41
(UTC+00:00)

Transit 2A Rocket - Visible Passes

Search period start: 10 May 2026 00:00
Search period end: 20 May 2026 00:00
Orbit: 587 x 896 km, 66.7° (Epoch: 9 May)

Date Brightness Start Highest point End Pass type
(mag) Time Alt. Az. Time Alt. Az. Time Alt. Az.
10 May 7.1 04:39:12 10° WSW 04:44:06 29° NW 04:48:44 10° N visible
10 May 7.6 11:41:07 10° N 11:44:34 21° NE 11:47:52 10° E visible
11 May 6.2 03:52:37 10° SW 03:58:12 50° WNW 04:03:25 10° NNE visible
11 May 8.1 10:56:44 10° NNE 10:58:24 12° NE 11:00:02 10° ENE visible
12 May 5.2 03:06:36 10° SSW 03:12:25 88° WNW 03:17:50 10° NNE visible
12 May 8.2 04:52:18 10° W 04:55:25 15° NW 04:58:27 10° N visible
12 May 5.9 11:51:18 10° NNW 11:55:41 46° ENE 11:59:49 10° SE visible
13 May 7.6 04:04:43 10° WSW 04:09:19 25° NW 04:13:40 10° N visible
13 May 7.2 11:06:03 10° N 11:09:46 24° NE 11:13:17 10° ESE visible
14 May 6.6 03:17:58 10° SW 03:23:22 42° WNW 03:28:26 10° NNE visible
14 May 8.0 10:21:20 10° NNE 10:23:38 14° NE 10:25:53 10° ENE visible
15 May 8.4 04:18:15 10° WNW 04:20:41 13° NW 04:23:04 10° NNW visible
15 May 5.3 11:16:22 10° NNW 11:20:49 56° ENE 11:25:00 10° SE visible
16 May 8.0 03:30:19 10° W 03:34:32 21° NW 03:38:33 10° N visible
16 May 6.7 10:31:00 10° N 10:34:56 28° NE 10:38:40 10° ESE visible
17 May 7.6 09:46:05 10° N 09:48:52 16° NE 09:51:34 10° E visible
17 May 4.6 11:27:14 10° NW 11:31:35 54° WSW 11:35:44 10° SSE visible
18 May 8.6 03:44:32 10° WNW 03:45:58 11° NW 03:47:22 10° NNW visible
18 May 4.8 10:41:27 10° NNW 10:45:55 70° ENE 10:50:10 10° SE visible
19 May 6.2 09:55:59 10° NNW 10:00:05 34° NE 10:03:59 10° ESE visible
19 May 5.8 11:38:51 10° WNW 11:42:06 20° WSW 11:45:16 10° SSW visible
